Weather History for KCQT - September, 2012

Change the Weather History Date:

Sunday, September 16, 2012

  Actual Average Record
Temperature  
Mean Temperature 79 °F 73 °F  
Max Temperature 88 °F 83 °F 103 °F (1909)
Min Temperature 69 °F 63 °F 48 °F (1884)
Degree Days  
Heating Degree Days 0 0  
Month to date heating degree days 0 0  
Since 1 July heating degree days 0 0  
Cooling Degree Days 14 8  
Month to date cooling degree days 207 141  
Year to date cooling degree days 939 975  
Growing Degree Days 28 (Base 50)    
Moisture  
Dew Point 63 °F    
Average Humidity 60    
Maximum Humidity 84    
Minimum Humidity 35    
Precipitation  
Precipitation 0.00 in 0.01 in 0.07 in (1989)
Month to date precipitation T 0.07  
Year to date precipitation 4.94 10.73  
Since 1 July precipitation 0.01 0.12  
Sea Level Pressure  
Sea Level Pressure 29.97 in    
Wind  
Wind Speed 1 mph (West)    
Max Wind Speed 7 mph    
Max Gust Speed 10 mph    
Visibility 9 miles    
Events      
T = Trace of Precipitation, MM = Missing Value Source: NWS Daily Summary

Daily Weather History Graph

Daily Weather History Graph

Search for Another Location

Airport or City:

Trip Planner

Search our weather history database for the weather conditions in past years. The results will help you decide how hot, cold, wet, or windy it might be!

Date:

Astronomy

Sep. 16, 2012 Rise Set
Actual Time 6:37 AM PDT 6:57 PM PDT
Civil Twilight 6:12 AM PDT 7:22 PM PDT
Nautical Twilight 5:43 AM PDT 7:51 PM PDT
Astronomical Twilight 5:13 AM PDT 8:21 PM PDT
Moon 7:17 AM PDT (9/16) 7:11 PM PDT (9/16)
Length of Visible Light 13h 10m
Length of Day
12h 20m
New Moon, 1% of the Moon is Illuminated
Sep 16
New Moon
Sep 22
First Quarter
Sep 29
Full
Oct 8
Last Quarter
Oct 15
New

Hourly Weather History & Observations

Time (PDT) Temp. Heat Index Dew Point Humidity Pressure Visibility Wind Dir Wind Speed Gust Speed Precip Events Conditions
12:47 AM 73.0 °F - 59.0 °F 61% 29.94 in 10.0 mi Calm Calm - N/A   Clear
1:47 AM 72.0 °F - 59.0 °F 64% 29.96 in 10.0 mi Calm Calm - N/A   Clear
2:47 AM 71.1 °F - 60.1 °F 68% 29.96 in 10.0 mi Calm Calm - N/A   Clear
3:47 AM 71.1 °F - 60.1 °F 68% 29.95 in 10.0 mi Calm Calm - N/A   Clear
4:47 AM 70.0 °F - 59.0 °F 68% 29.94 in 10.0 mi Calm Calm - N/A   Clear
5:47 AM 69.1 °F - 59.0 °F 70% 29.95 in 10.0 mi Calm Calm - N/A   Clear
6:47 AM 70.0 °F - 60.1 °F 71% 29.97 in 10.0 mi Calm Calm - N/A   Clear
7:47 AM 72.0 °F - 64.0 °F 76% 30.00 in 9.0 mi Calm Calm - N/A   Clear
8:47 AM 75.0 °F - 64.9 °F 71% 30.01 in 9.0 mi Calm Calm - N/A   Clear
9:47 AM 78.1 °F - 64.9 °F 64% 30.02 in 10.0 mi Variable 3.5 mph - N/A   Clear
10:47 AM 77.0 °F - 64.9 °F 66% 30.03 in 10.0 mi Calm Calm - N/A   Clear
11:47 AM 80.1 °F 81.5 °F 63.0 °F 56% 30.01 in 10.0 mi Variable 3.5 mph - N/A   Clear
12:47 PM 84.0 °F 84.4 °F 61.0 °F 46% 30.00 in 10.0 mi Calm Calm - N/A   Clear
1:47 PM 86.0 °F 84.7 °F 55.9 °F 36% 29.97 in 10.0 mi Calm Calm - N/A   Clear
2:47 PM 87.1 °F 86.5 °F 59.0 °F 39% 29.95 in 10.0 mi Variable 3.5 mph - N/A   Clear
3:47 PM 84.9 °F 85.9 °F 63.0 °F 48% 29.94 in 10.0 mi Variable 3.5 mph - N/A   Clear
4:47 PM 84.0 °F 85.4 °F 64.0 °F 51% 29.93 in 10.0 mi Variable 3.5 mph - N/A   Clear
5:47 PM 80.1 °F 81.2 °F 62.1 °F 54% 29.93 in 10.0 mi Calm Calm - N/A   Clear
6:47 PM 75.9 °F - 64.9 °F 69% 29.94 in 10.0 mi Calm Calm - N/A   Clear
7:47 PM 73.0 °F - 66.0 °F 79% 29.96 in 10.0 mi Calm Calm - N/A   Clear
8:12 PM 71.6 °F - 66.2 °F 83% 29.97 in 9.0 mi West 3.5 mph - N/A   Partly Cloudy
8:28 PM 71.6 °F - 66.2 °F 83% 29.97 in 8.0 mi Calm Calm - N/A   Mostly Cloudy
8:47 PM 71.1 °F - 66.0 °F 84% 29.97 in 8.0 mi Calm Calm - N/A   Mostly Cloudy
9:21 PM 71.6 °F - 66.2 °F 83% 29.99 in 7.0 mi Calm Calm - N/A   Mostly Cloudy
9:47 PM 71.1 °F - 66.0 °F 84% 29.98 in 7.0 mi Calm Calm - N/A   Mostly Cloudy
10:47 PM 72.0 °F - 66.0 °F 81% 29.99 in 7.0 mi Calm Calm - N/A   Overcast
11:47 PM 72.0 °F - 64.9 °F 78% 29.99 in 6.0 mi Calm Calm - N/A   Haze